Overview Statistics Trail Chart Weather Telemetry Raw packets
 

This is the latest recevied weather packets stored in our database for station/object N1HQ. If no packets are shown the sender has not sent any weather packets the latest 10 day(s).

<< 117 118 119 120 121 122 123 >>
Time Temp. Humidity Pressure Rain* Wind** Luminosity Snow
1787781231 32.22° C 78% 1012 hPa 0 mm - - -
1787780978 31.67° C 78% 1011.9 hPa 0 mm - - -
1787780691 32.22° C 77% 1011.9 hPa 0 mm - - -
1787780423 31.67° C 78% 1012 hPa 0 mm - - -
1787780138 31.67° C 80% 1012.1 hPa 0 mm - - -
1787779838 31.67° C 81% 1012.2 hPa 0 mm - - -
1787779548 31.11° C 81% 1012.4 hPa 0 mm - - -
1787779251 31.11° C 84% 1012.2 hPa 0 mm - - -
1787778968 30.56° C 86% 1012.3 hPa 0 mm - - -
1787778696 30.56° C 86% 1012.2 hPa 0 mm - - -
1787778398 30° C 87% 1012.3 hPa 0 mm - - -
1787778126 30° C 87% 1012.2 hPa 0 mm - - -
1787777868 29.44° C 87% 1012.1 hPa 0 mm - - -
1787777618 30° C 86% 1012.2 hPa 0 mm - - -
1787777348 30° C 86% 1012.1 hPa 0 mm - - -
1787777091 30° C 86% 1012.3 hPa 0 mm - - -
1787776798 30° C 85% 1012.3 hPa 0 mm - - -
1787776505 30° C 84% 1012.4 hPa 0 mm - - -
1787776213 30° C 85% 1012.4 hPa 0 mm - - -
1787775943 30° C 85% 1012.5 hPa 0 mm - - -
1787775683 30° C 84% 1012.6 hPa 0 mm - - -
1787775383 30.56° C 85% 1012.7 hPa 0 mm - - -
1787775096 30.56° C 84% 1012.5 hPa 0 mm - - -
1787774858 30.56° C 83% 1012.7 hPa 0 mm - - -
1787774617 31.11° C 83% 1012.7 hPa 0 mm - - -

* Rain latest hour (hover to see other rain measurements)
** Current wind speed in m/s (hover to see current wind gust speed)